Location: Castera
(43.4000°N, 0.0333°W)
Time: 14:22:12
(UTC+00:00)

Daily predictions for brighter satellites

Satellite Brightness Start Highest point End
(mag) Time Altitude Azimuth Time Altitude Azimuth Time Altitude Azimuth
Cosmos 2074 Rocket 4.5 20:01:17 10° SSE 20:07:03 42° E 20:12:53 10° NNE
Cosmos 1603 3.8 20:01:45 10° NNW 20:07:29 76° ENE 20:13:08 10° SSE
CSL-04 Rocket 3.9 20:02:54 10° S 20:08:21 78° WSW 20:13:56 10° NNW
ISS -1.8 20:12:19 10° W 20:15:21 32° NNW 20:18:24 10° NE
SPOT 5 3.4 20:11:11 10° SE 20:15:51 48° ENE 20:20:46 10° N
Cosmos 1607 4.5 20:10:01 10° NW 20:16:17 59° WSW 20:22:21 10° SSE
Cosmos 921 Rocket 4.1 20:14:16 10° N 20:17:55 28° ENE 20:21:34 10° SE
Cosmos 2112 Rocket 4.1 20:15:32 10° NNW 20:20:47 83° WSW 20:26:03 10° SSE
USA 186 4.0 20:19:12 10° SSW 20:21:43 23° W 20:24:14 10° NW
Cosmos 1328 3.7 20:18:09 10° S 20:21:56 67° E 20:25:43 10° NNE
Cosmos 1825 2.6 20:19:16 10° SSW 20:22:35 56° W 20:25:57 10° N
USA 215 3.4 20:16:27 10° SE 20:23:00 83° NE 20:29:36 10° NW
Cosmos 494 Rocket 4.3 20:20:15 10° NNW 20:25:24 52° ENE 20:30:30 10° SE
NOSS 2-3 (D) 3.8 20:22:41 10° S 20:26:00 33° ESE 20:29:29 10° NE
Okean-O 2.6 20:23:51 10° SSE 20:28:14 80° ENE 20:32:39 10° N
ARGOS Delta rocket 3.9 20:24:13 10° S 20:28:51 83° WSW 20:33:47 10° NNW
Timation 2 Rocket 4.3 20:24:42 10° S 20:30:41 44° ESE 20:36:28 10° NE
Gbstr 26 Del rocket 4.2 20:27:04 10° W 20:31:09 47° NNW 20:36:03 10° NE
Cosmos 1125 Rocket 4.4 20:28:33 10° SSE 20:33:02 29° E 20:37:32 10° NE
CZ-4C R/B 3.3 20:31:18 10° NNE 20:34:53 49° E 20:38:18 10° S
USA 276 3.7 20:36:50 10° NW 20:39:25 28° NNE 20:42:06 10° ENE
Cosmos 2084 3.3 20:37:06 10° SSW 20:41:14 62° SE 20:45:11 10° NE
SPOT 3 Rocket 4.5 20:38:30 12° SE 20:42:41 34° ENE 20:47:22 10° N
NOSS 2-2 (E) 2.6 20:45:30 10° SSW 20:48:55 74° ESE 20:52:00 10° NE
NOSS 2-2 (C) 3.2 20:45:59 10° SW 20:49:15 65° NW 20:52:21 10° NNE
In-Cosmos 22 Rocket 4.4 20:45:31 10° S 20:51:07 55° E 20:56:37 10° NNE
BREEZE-M DEB (TANK) 3.9 20:51:29 10° NW 20:54:16 52° NNE 21:01:31 10° ESE
Nadezhda 3 Rocket 4.0 20:48:38 10° N 20:54:46 67° E 21:00:16 13° SSE
NOSS 2-3 (E) 3.0 20:51:23 10° SSW 20:55:01 79° SE 20:58:56 10° NE
Cosmos 1844 4.3 20:49:48 10° SW 20:55:32 62° WNW 21:01:16 10° NNE
Terra 2.0 20:52:39 15° SSE 20:56:27 60° ENE 21:01:07 10° N
Meteor 1-21 Rocket 4.3 20:57:01 10° SSW 21:02:34 83° W 21:08:08 10° N
Cosmos 1437 Rocket 4.0 21:07:19 20° ESE 21:08:01 21° E 21:10:45 10° NE
ATLAS CENTAUR R/B 1.4 21:04:25 10° NNW 21:08:24 66° NE 21:10:52 23° SE
GP-B 4.2 21:04:25 10° N 21:08:37 44° W 21:12:47 10° SSW
NOSS 2-3 (C) 3.5 21:09:12 10° SW 21:12:47 68° NW 21:16:43 10° NNE
Cosmos 1833 Rocket 3.5 21:09:33 10° NNW 21:14:49 38° ENE 21:18:22 19° ESE
Meteor 2-1 Rocket 4.2 21:09:33 10° N 21:15:10 68° ENE 21:18:58 20° SSE
Cosmos 1455 Rocket 3.2 21:12:05 10° NNW 21:16:28 76° W 21:19:45 17° S
Cosmos 1975 Rocket 3.0 21:12:46 11° S 21:17:05 89° ESE 21:21:35 10° N
Cosmos 1025 Rocket 4.2 21:13:34 10° SSW 21:17:35 42° WNW 21:21:38 10° N
Cosmos 44 3.7 21:12:51 10° S 21:17:55 47° ESE 21:22:48 10° NE
Orbus 7S? 2.4 21:17:41 10° NW 21:20:22 80° SW 21:21:21 37° SE
Lacrosse 5 3.6 21:15:53 10° W 21:20:30 35° NNW 21:25:10 10° NE
ERS-1 Rocket 3.2 21:18:04 15° S 21:22:09 67° WSW 21:27:09 10° NNW
Spot 2 Rocket 3.5 21:19:30 20° SSE 21:23:09 89° WSW 21:28:17 10° NNW
Cosmos 220 Rocket 4.4 21:22:21 10° N 21:26:23 47° ENE 21:28:09 29° ESE
NOSS 2-2 (D) 4.2 21:23:36 10° WSW 21:26:45 40° NW 21:29:43 10° NNE
Cosmos 2218 Rocket 4.5 21:23:42 22° SE 21:27:06 41° E 21:32:49 10° NNE
ATLAS 5 CENTAUR R/B 4.4 21:24:55 10° WNW 21:27:06 16° NW 21:29:27 10° N
Cosmos 2082 Rocket 4.2 21:24:01 10° N 21:27:32 17° NE 21:31:02 10° E
Landsat 5 4.0 21:28:23 10° NNE 21:32:37 44° E 21:34:11 31° SSE
Cosmos 2278 Rocket 3.1 21:31:13 25° SE 21:32:42 28° ESE 21:37:24 10° NE
Cosmos 1606 2.4 21:33:14 10° N 21:36:48 87° W 21:38:05 37° S
Cosmos 2298 Rocket 4.1 21:33:31 21° S 21:36:59 57° ESE 21:42:13 10° NNE
MetOp-A 4.2 21:35:02 28° SE 21:37:00 45° ENE 21:41:11 10° N
Cosmos 2341 Rocket 4.0 21:33:38 21° S 21:37:58 66° E 21:44:15 10° NNE
Cosmos 1339 Rocket 4.4 21:33:03 10° N 21:39:19 88° W 21:43:24 23° S
Meteor 1-11 4.4 21:35:28 10° SSW 21:41:12 73° WNW 21:46:54 10° N
Cosmos 1536 Rocket 3.8 21:47:10 38° SE 21:48:20 49° E 21:52:30 10° NNE
Cosmos 1869 3.4 21:44:52 10° NNW 21:48:40 67° W 21:50:07 35° SSW
Ariane Rocket 3.5 21:47:25 22° S 21:50:34 56° W 21:55:33 10° NNW
ISS -1.0 21:50:20 10° NW 21:52:49 19° N 21:55:18 10° NE
MOS 1 Rocket 4.4 21:50:51 16° SSW 21:54:02 36° W 21:58:13 10° NNW
ARIANE 5 R/B 3.8 21:58:54 26° E 22:00:05 30° ENE 22:03:59 10° N
ATLAS 3B R/B 3.5 22:01:26 28° SE 22:02:52 31° ESE 22:09:11 10° NE
GENESIS II 4.0 21:59:33 10° NNW 22:03:06 65° NE 22:03:31 58° E
BREEZE-M DEB (TANK) 2.9 21:54:24 10° WNW 22:04:55 79° SSW 22:06:11 44° SE
Cosmos 1727 Rocket 4.5 22:00:12 10° N 22:06:19 47° ENE 22:08:48 32° SE
USA 215 4.4 22:03:13 20° SSW 22:06:26 29° SW 22:12:00 10° WNW
Cosmos 2228 2.9 22:02:46 10° N 22:06:58 78° W 22:08:06 47° S
Cosmos 1943 Rocket 2.9 22:08:20 33° ESE 22:09:02 34° ESE 22:14:04 10° NE
Cosmos 1821 Rocket 4.2 22:09:48 35° SSE 22:12:17 56° E 22:18:29 10° NNE
USA 276 2.7 22:10:50 10° WNW 22:13:09 47° W 22:13:09 47° W
Cosmos 2150 Rocket 4.4 22:14:23 16° SSW 22:18:40 64° WNW 22:24:06 10° NNE
NOSS 3-1 (C) 2.9 22:24:27 24° SW 22:27:26 86° NW 22:33:11 10° NE
SeaSat 1 3.8 22:26:56 22° E 22:28:58 30° NE 22:33:13 10° N
Terra 4.2 22:31:43 10° SW 22:34:25 15° W 22:37:10 10° NW
Cosmos 2366 rocket 4.4 22:30:37 23° SSW 22:34:30 57° W 22:40:34 10° N
Cosmos 1812 3.6 22:33:37 10° N 22:36:28 35° ENE 22:36:28 35° ENE
BREEZE-M R/B 3.9 22:37:16 10° W 22:41:25 71° NNW 22:54:11 10° ENE
PSLV R/B 3.9 22:41:08 10° NNE 22:44:51 63° ENE 22:44:51 63° ENE
Cosmos 1892 Rocket 3.7 22:45:05 58° E 22:45:10 58° E 22:49:33 10° NNE
ATLAS CENTAUR R/B 3.7 22:43:38 10° W 22:45:32 13° WSW 22:45:46 13° WSW
Cosmos 1140 Rocket 4.4 22:48:46 10° N 22:53:33 38° ENE 22:54:49 32° E
Cosmos 2239 Rocket 4.4 22:55:30 48° S 22:57:24 85° E 23:03:40 10° N
Cosmos 1833 Rocket 3.7 22:53:37 10° NW 22:58:38 33° WSW 23:00:03 29° SW
SL-08 R/B 4.3 22:57:35 49° S 22:59:24 87° E 23:05:33 10° N
NOSS 3-1 (A) 2.8 23:03:57 61° SSW 23:04:51 84° ESE 23:10:36 10° NE
Cosmos-2242 4.5 23:02:20 10° NNE 23:05:51 25° ENE 23:05:51 25° ENE
Cosmos 2123 Rocket 4.1 22:59:57 10° N 23:06:11 64° E 23:07:51 47° SE
Cosmos 1606 Rocket 4.0 23:02:38 10° NNW 23:06:49 50° W 23:07:01 49° WSW
Cosmos 1726 Rocket 3.6 23:04:45 10° NNW 23:09:03 65° W 23:09:05 65° W
Cosmos 1000 Rocket 4.4 23:04:52 10° N 23:11:02 81° W 23:12:37 52° S
Cosmos 2082 Rocket 2.1 23:06:47 10° NNW 23:12:27 89° ENE 23:13:28 62° SSE
Cosmos 2278 Rocket 3.1 23:12:59 21° WSW 23:16:30 45° WNW 23:21:56 10° NNE
Cosmos 2369 Rocket 3.5 23:19:37 24° E 23:19:37 24° E 23:23:41 10° NE
H-2A R/B 2.5 23:20:31 66° NNW 23:20:31 66° NNW 23:23:53 10° NNW
ULPM Upper Stage 3.1 23:16:26 10° NNW 23:20:45 56° NE 23:20:59 55° ENE
PSLV R/B 4.4 23:18:43 10° NNE 23:22:20 41° ENE 23:22:20 41° ENE
Cosmos 489 Rocket 4.4 23:24:24 57° S 23:25:41 75° ESE 23:31:54 10° NNE
ISS -2.0 23:27:16 10° NW 23:30:10 31° NNE 23:30:10 31° NNE
USA 229 DEB 3.8 23:32:18 45° ESE 23:32:33 46° ESE 23:38:46 10° NE
USA 229 3.8 23:32:27 45° ESE 23:32:41 45° ESE 23:38:53 10° NE
Cosmos 2058 Rocket 3.2 23:30:33 10° NNW 23:34:37 65° WNW 23:34:37 65° WNW
Cosmos 1782 3.6 23:31:36 10° N 23:34:35 44° NE 23:34:35 44° NE
ARIANE 5 R/B 4.1 23:36:22 27° W 23:36:26 27° W 23:40:13 10° NW
CRYOSAT 2 4.2 23:32:53 10° N 23:37:47 81° E 23:37:58 79° SE
CZ-4C R/B 3.4 23:33:13 10° NNW 23:40:19 61° NE 23:45:35 25° ESE
Cosmos 1934 Rocket 4.0 23:39:12 50° SSW 23:40:52 73° W 23:47:07 10° N
COSMOS 2406 3.1 23:36:34 10° NNW 23:42:12 68° WSW 23:42:49 63° SSW
Meteor 2-2 Rocket 4.4 23:36:36 10° N 23:42:19 64° ENE 23:43:24 53° SE
Cosmos 2221 4.4 23:43:21 10° NNE 23:46:28 19° ENE 23:46:52 19° E
Cosmos 1943 Rocket 3.4 23:49:48 23° WSW 23:52:42 37° WNW 23:57:56 10° N
Cosmos 2058 4.1 23:54:52 33° WNW 23:54:52 33° WNW 23:58:35 10° N
